Location: Nianha
(10.8000°N, 4.6333°W)
Time: 14:06:25
(UTC+00:00)

Cosmos 1076 Rocket - Pass Details

Date: 14 November 2019
Orbit: 590 x 612 km, 82.5° (Epoch: 16 January)

Event Time Altitude Azimuth Distance (km) Brightness Sun altitude
Rises 05:15:22 0° 205° (SSW) 2,865 6.9 -14.5°
Reaches altitude 10° 05:17:50 10° 217° (SW) 1,962 5.9 -13.9°
Maximum altitude 05:21:32 27° 276° (W) 1,170 4.4 -13.1°
Drops below altitude 10° 05:25:14 10° 334° (NNW) 1,961 5.7 -12.2°
Sets 05:27:43 0° 346° (NNW) 2,863 6.7 -11.6°
